Starlink 36638

operational
NORAD ID: 67594 Int'l Des: 2026-018 Owner: SPXS Country: US Constellation: starlink
NOTLE

About Starlink 36638

Description loading...

Live Position

Loading 3D Globe...

Upcoming Passes

Altitude History

Altitude vs Time

uPlot chart will show altitude changes over time

Two-Line Element Set

1 67594U 26018F 26047.57533387 .00339194 00000-0 16924-2 0 9991
2 67594 97.2828 112.3357 0000931 1.4438 358.6833 15.80959902 3988
Epoch: Feb 16, 2026 • Age: 9 hours

Current Status

Altitude 328.9 km
Velocity 7.71 km/s
Sub-Earth Point 15.86°N, 21.11°W
Launch Date Jan 29, 2026
Age 18 days
Type internet

Technical Details

Classification Payload
Mass 575.00 kg
Dry Mass 530.00 kg
Total Mass 575.00 kg
Length 0.30 m
Diameter 4.10 m
Span 29.00 m
Shape Box + pan
Manufacturer SPXS
Bus Type Starlink V2MO
Phase Status In Orbit
Owner/State SPXS/US

Large Constellations

Loading constellations...